Regional Weather Roundup
Issued by NWS Sioux Falls, SD

Home | Current Version | Previous Version | Text Only | Print | Product List | Glossary On
Versions: 1 2 3 4 5 6 7 8 9 10 11 12 13 14 15 16 17 18 19 20 21 22 23 24 25 26 27 28 29 30 31 32 33 34 35 36 37 38 39 40 41 42 43 44 45 46 47 48 49 50
000
ASUS43 KFSD 241610
RWRFSD

WEATHER ROUNDUP FOR SE SOUTH DAKOTA/SW MINNESOTA/NW IOWA
NATIONAL WEATHER SERVICE SIOUX FALLS SD
1100 AM CDT MON APR 24 2017

NOTE: "FAIR" INDICATES FEW OR NO CLOUDS BELOW 12,000 FEET WITH NO
SIGNIFICANT WEATHER AND OR OBSTRUCTIONS TO VISIBILITY.


SDZ038>040-050-052>070-241700-
SOUTHEAST SOUTH DAKOTA

CITY           SKY/WX    TMP DP  RH WIND       PRES   REMARKS
BROOKINGS      CLOUDY    57  38  48 S26G33    29.57S
CHAMBERLAIN    CLOUDY    53  44  70 SW14      29.55S
HURON          MOSUNNY   62  40  44 S16G28    29.51F
MADISON        FAIR      55  37  50 S22G33    29.57F
MITCHELL       CLOUDY    60  39  45 S20G30    29.54F
SIOUX FALLS    CLOUDY    57  40  52 S24G31    29.58F
WINNER         PTSUNNY   46  39  76 NW20      29.57S
YANKTON        CLOUDY    54  37  54 S22G29    29.58S
$$

MNZ071-072-080-081-089-090-097-098-241700-
SOUTHWEST MINNESOTA

CITY           SKY/WX    TMP DP  RH WIND       PRES   REMARKS
FAIRMONT       CLOUDY    64  33  31 S35G44    29.69F
JACKSON        CLOUDY    61  32  33 S25G36    29.69F
LUVERNE        CLOUDY    59  32  36 S29G37    29.62F
MARSHALL       CLOUDY    60  38  43 S24G32    29.60F
MONTEVIDEO     CLOUDY    63  36  36 SW18G24   29.61R
PIPESTONE      CLOUDY    57  34  41 SW30G38   29.60S
REDWOOD FALLS  CLOUDY    60  34  37 S23G36    29.64F
TRACY          CLOUDY    61  37  41 S23G32    29.62F
WINDOM         CLOUDY    61  30  31 S23G36    29.65F
WORTHINGTON    CLOUDY    60  33  36 S32G40    29.62F
$$

IAZ001>003-012>014-020>022-031-032-NEZ013-014-SDZ071-241700-
NORTHWEST IOWA

CITY           SKY/WX    TMP DP  RH WIND       PRES   REMARKS
CHEROKEE       PTSUNNY   63  34  34 S24G35    29.69F
DENISON        MOSUNNY   64  34  32 S23G40    29.73S
ESTHERVILLE    CLOUDY    61  35  37 S31G38    29.70F
LE MARS        CLOUDY    61  36  39 S28G36    29.65F
ORANGE CITY    CLOUDY    61  36  39 S25G36    29.65S
SHELDON        CLOUDY    61  32  33 S29       29.64F
SIOUX CITY     CLOUDY    63  38  39 S22       29.65F
SPENCER        CLOUDY    63  32  31 S32G41    29.68F
STORM LAKE     MOSUNNY   63  32  31 S35G44    29.69F
$$

ABBREVIATIONS USED IN REMARKS
   TC - TEMPERATURE IN CELSIUS
  WCI - WIND CHILL INDEX
   HX - HEAT INDEX
  VSB - VISIBILITY




USA.gov is the U.S. government's official web portal to all federal, state and local government web resources and services.